User: anonymous   Login
Location: Oshawa
(43.9000°N, 78.8670°W)
Time: 17:26:11
(UTC-04:00)
Language:

S-56A Canister/Altair - Orbit

View from above orbital plane
View from above orbital plane
View from above satellite
View from above satellite

Ground track
Ground track

The orbit data is extracted from the following two-line orbital elements,

1    82U 61004B   17118.32677212 +.00000059 +00000-0 +83035-4 0  9996
2    82 038.8579 121.6119 1170026 312.9228 037.8871 12.25832753667143
Epoch (UTC): 28 April 2017 07:50:33
Eccentricity: 0.1170026
inclination: 38.8579°
perigee height: 637 km
apogee height: 2497 km
right ascension of ascending node: 121.6119°
argument of perigee: 312.9228°
revolutions per day: 12.25832753
mean anomaly at epoch: 37.8871°
orbit number at epoch: 66714

The dashed part of the orbit path shows where the satellite is in the earth's shadow,  

DLR